GW4332 Weather Reports


Display with metric or nautical units.
time (UTC)temp
F
wind
direction
speed
MPH
gust
MPH
rain 1hr
in
rain 24hr
in
rain mn
in
humidity
%
barometer
mb
20260903013029 64 184 5.0 12.0 0.00 0.00 0.00 80 1015.2
20260903012030 64 194 4.0 16.0 0.00 0.00 0.00 80 1015.3
20260903011030 64 192 7.0 14.0 0.00 0.00 0.00 80 1015.5
20260903010030 64 202 7.0 14.0 0.00 0.00 0.00 80 1015.6
20260903005030 64 190 8.0 15.0 0.00 0.00 0.00 81 1015.8
20260903004030 64 195 7.0 14.0 0.00 0.00 0.00 81 1015.8
20260903003030 64 209 7.0 15.0 0.00 0.00 0.00 81 1015.9
20260903002030 64 198 8.0 19.0 0.00 0.00 0.00 82 1016.0
20260903001030 63 202 7.0 16.0 0.00 0.00 0.00 84 1016.0
20260903000030 63 191 5.0 13.0 0.00 0.00 0.00 85 1016.0
20260902235029 63 188 4.0 12.0 0.00 0.00 0.00 85 1016.1
20260902234030 63 162 2.0 8.0 0.00 0.00 0.00 86 1016.2
20260902233031 63 195 3.0 8.0 0.00 0.00 0.00 86 1016.4
20260902232030 63 174 3.0 8.0 0.00 0.00 0.00 86 1016.6
20260902231030 63 196 5.0 10.0 0.00 0.00 0.00 87 1016.8
20260902230030 63 192 7.0 14.0 0.00 0.00 0.00 87 1017.1
20260902225029 63 190 6.0 16.0 0.00 0.00 0.00 88 1017.1
20260902224030 63 138 1.0 4.0 0.00 0.00 0.00 88 1017.3
20260902223030 63 140 2.0 6.0 0.00 0.00 0.00 88 1017.3
20260902222030 63 137 2.0 5.0 0.00 0.00 0.00 87 1017.4
20260902221030 63 141 1.0 4.0 0.00 0.00 0.00 87 1017.6
20260902220030 63 139 1.0 4.0 0.00 0.00 0.02 87 1017.7
20260902215030 63 178 2.0 8.0 0.00 0.00 0.02 86 1017.7
20260902214030 63 191 4.0 10.0 0.00 0.00 0.02 86 1017.9
20260902213030 63 181 5.0 12.0 0.00 0.00 0.01 86 1018.1
20260902212029 63 193 4.0 9.0 0.00 0.00 0.01 86 1018.1
20260902211030 63 195 3.0 8.0 0.00 0.00 0.01 85 1017.9
20260902210030 63 188 3.0 8.0 0.00 0.00 0.01 85 1018.0
20260902205030 64 143 1.0 7.0 0.00 0.00 0.01 84 1017.9
20260902204030 64 145 2.0 5.0 0.00 0.00 0.01 84 1018.1
20260902203030 64 142 2.0 6.0 0.00 0.00 0.01 83 1018.1
20260902202029 64 159 1.0 5.0 0.00 0.00 0.01 82 1018.3
20260902201030 64 155 1.0 4.0 0.00 0.00 0.00 81 1018.4
20260902200030 64 184 2.0 5.0 0.00 0.00 0.00 81 1018.4
20260902195030 64 199 5.0 10.0 0.00 0.00 0.00 80 1018.5
20260902194030 64 214 5.0 10.0 0.00 0.00 0.00 80 1018.6
20260902193030 64 230 9.0 14.0 0.00 0.00 0.00 79 1018.5
20260902192029 64 239 14.0 27.0 0.00 0.00 0.00 78 1018.6
20260902191030 64 225 22.0 31.0 0.00 0.00 0.00 82 1018.6
20260902190030 66 193 6.0 12.0 0.00 0.00 0.00 77 1018.8
20260902185030 66 200 4.0 9.0 0.00 0.00 0.00 76 1018.8
20260902184030 66 200 5.0 10.0 0.00 0.00 0.00 76 1018.6
20260902183030 66 189 4.0 8.0 0.00 0.00 0.00 76 1018.6
20260902182029 66 204 5.0 8.0 0.00 0.00 0.00 76 1018.6
20260902181030 66 204 5.0 10.0 0.00 0.00 0.00 76 1018.6
20260902180030 66 201 6.0 12.0 0.00 0.00 0.00 75 1018.6
20260902175030 67 209 7.0 14.0 0.00 0.00 0.00 75 1018.7
20260902174030 67 209 7.0 13.0 0.00 0.00 0.00 76 1018.6
20260902173030 67 213 7.0 12.0 0.00 0.00 0.00 76 1018.7
20260902172029 67 219 8.0 13.0 0.00 0.00 0.00 76 1018.7
20260902171030 67 218 8.0 14.0 0.00 0.00 0.00 76 1018.7
20260902170030 67 227 11.0 16.0 0.00 0.00 0.00 76 1018.7
20260902165030 67 218 10.0 15.0 0.00 0.00 0.00 77 1018.6
20260902164030 67 228 10.0 15.0 0.00 0.00 0.00 77 1018.7
20260902163030 67 236 11.0 15.0 0.00 0.00 0.00 76 1018.8
20260902162030 67 236 12.0 16.0 0.00 0.00 0.00 76 1018.7
20260902161030 67 239 12.0 15.0 0.00 0.00 0.00 76 1018.8
20260902160030 68 236 12.0 16.0 0.00 0.00 0.00 75 1018.8
20260902155030 68 235 12.0 16.0 0.00 0.00 0.00 73 1018.9
20260902154030 68 244 13.0 17.0 0.00 0.00 0.00 72 1018.9
20260902153029 68 230 14.0 18.0 0.00 0.00 0.00 72 1019.0
20260902152030 68 239 13.0 18.0 0.00 0.00 0.00 72 1019.0
20260902151030 68 247 14.0 19.0 0.00 0.00 0.00 73 1019.0
20260902150030 68 234 15.0 21.0 0.00 0.00 0.00 72 1019.1
20260902145030 69 263 15.0 18.0 0.00 0.00 0.00 72 1019.3
20260902144029 69 239 11.0 17.0 0.00 0.00 0.00 73 1019.3
20260902143030 68 225 10.0 14.0 0.00 0.00 0.00 74 1019.2
20260902142030 68 250 11.0 15.0 0.00 0.00 0.00 74 1019.2
20260902141030 69 232 9.0 13.0 0.00 0.00 0.00 74 1019.2
20260902140030 69 253 12.0 15.0 0.00 0.00 0.00 72 1019.2
20260902135030 69 240 13.0 17.0 0.00 0.00 0.00 71 1019.1
20260902134030 69 247 13.0 17.0 0.00 0.00 0.00 72 1019.1
20260902133030 69 243 12.0 16.0 0.00 0.00 0.00 71 1019.1
20260902132030 69 257 10.0 13.0 0.00 0.00 0.00 75 1019.2
20260902131030 68 252 11.0 14.0 0.00 0.00 0.00 73 1019.1
20260902130030 68 254 13.0 16.0 0.00 0.00 0.00 73 1019.3
20260902125030 68 241 12.0 16.0 0.00 0.00 0.00 73 1019.3
20260902124030 68 233 12.0 16.0 0.00 0.00 0.00 73 1019.2
20260902123030 68 243 10.0 13.0 0.00 0.00 0.00 75 1019.3
20260902122029 67 246 11.0 14.0 0.00 0.00 0.00 75 1019.3
20260902121029 67 246 12.0 15.0 0.00 0.00 0.00 75 1019.4
20260902120030 67 240 12.0 15.0 0.00 0.00 0.00 76 1019.3
20260902115030 67 248 14.0 18.0 0.00 0.00 0.00 76 1019.5
20260902114030 67 259 15.0 20.0 0.00 0.00 0.00 75 1019.6
20260902113032 67 233 14.0 20.0 0.00 0.00 0.00 75 1019.5
20260902112030 67 233 12.0 18.0 0.00 0.00 0.00 75 1019.5
20260902111029 67 240 15.0 22.0 0.00 0.00 0.00 75 1019.4
20260902110030 67 247 16.0 21.0 0.00 0.00 0.00 76 1019.6
20260902105030 67 250 15.0 22.0 0.00 0.00 0.00 75 1019.3
20260902104030 67 228 12.0 18.0 0.00 0.00 0.00 78 1019.3
20260902103030 67 226 13.0 18.0 0.00 0.00 0.00 78 1019.4
20260902102030 67 230 12.0 17.0 0.00 0.00 0.00 77 1019.4
20260902101030 68 222 12.0 17.0 0.00 0.00 0.00 77 1019.3
20260902100030 67 228 11.0 17.0 0.00 0.00 0.00 77 1019.2
20260902095029 67 218 11.0 18.0 0.00 0.00 0.00 80 1019.2
20260902094030 66 234 10.0 16.0 0.00 0.00 0.00 82 1019.1
20260902093030 66 228 10.0 16.0 0.00 0.00 0.00 83 1019.2
20260902092029 66 219 8.0 13.0 0.00 0.00 0.00 84 1019.1
20260902091031 65 209 6.0 10.0 0.00 0.00 0.00 85 1019.1
20260902090030 65 191 5.0 12.0 0.00 0.00 0.00 86 1019.0
20260902085030 64 199 6.0 11.0 0.00 0.00 0.00 87 1019.1
20260902084030 64 194 6.0 12.0 0.00 0.00 0.00 87 1019.0
20260902083030 63 205 7.0 14.0 0.00 0.00 0.00 87 1018.9
20260902082030 63 199 7.0 14.0 0.00 0.00 0.00 88 1018.9
20260902081030 62 183 6.0 12.0 0.00 0.00 0.00 89 1018.9
20260902080030 62 196 7.0 12.0 0.00 0.00 0.00 89 1018.8
20260902075030 61 202 4.0 11.0 0.00 0.00 0.00 90 1018.8
20260902074029 61 188 4.0 10.0 0.00 0.00 0.00 90 1018.7
20260902073030 60 169 4.0 12.0 0.00 0.00 0.00 90 1018.5
20260902072030 60 186 4.0 10.0 0.00 0.00 0.00 90 1018.5
20260902071029 59 184 2.0 8.0 0.00 0.00 0.00 90 1018.5
20260902070030 59 203 3.0 8.0 0.00 0.00 0.00 90 1018.4
20260902065030 59 180 3.0 8.0 0.00 0.00 0.00 90 1018.5
20260902064030 59 189 2.0 8.0 0.00 0.00 0.00 90 1018.5
20260902063030 58 164 2.0 6.0 0.00 0.00 0.00 89 1018.6
20260902062030 58 155 2.0 5.0 0.00 0.00 0.00 89 1018.5
20260902060030 58 143 2.0 5.0 0.00 0.00 0.00 89 1018.4
20260902055030 58 129 2.0 4.0 0.00 0.00 0.00 89 1018.4
20260902054029 58 139 2.0 5.0 0.00 0.00 0.00 89 1018.4
20260902053033 58 126 2.0 4.0 0.00 0.00 0.00 88 1018.5
20260902052030 58 127 2.0 5.0 0.00 0.00 0.00 88 1018.4
20260902051030 58 136 2.0 6.0 0.00 0.00 0.00 88 1018.4
20260902050030 58 121 2.0 4.0 0.00 0.00 0.00 88 1018.3
20260902045030 58 119 2.0 6.0 0.00 0.00 0.00 87 1018.3
20260902044030 58 128 2.0 7.0 0.00 0.00 0.00 87 1018.3
20260902043029 58 116 2.0 6.0 0.00 0.00 0.00 87 1018.3
20260902042030 58 118 2.0 8.0 0.00 0.00 0.00 87 1018.3
20260902041030 58 118 2.0 8.0 0.00 0.00 0.00 86 1018.3
20260902040030 58 132 2.0 6.0 0.00 0.00 0.00 86 1018.4
20260902035030 58 136 2.0 6.0 0.00 0.00 0.00 86 1018.5
20260902034030 58 111 2.0 7.0 0.00 0.00 0.00 86 1018.4
20260902033030 58 100 3.0 7.0 0.00 0.00 0.00 85 1018.6
20260902032030 59 118 2.0 7.0 0.00 0.00 0.00 85 1018.6
20260902031030 59 104 2.0 7.0 0.00 0.00 0.00 85 1018.6
20260902030030 59 123 2.0 7.0 0.00 0.00 0.00 85 1018.7
20260902025030 59 113 3.0 7.0 0.00 0.00 0.00 84 1018.7
20260902024030 59 113 2.0 7.0 0.00 0.00 0.00 84 1018.7
20260902023029 59 116 2.0 7.0 0.00 0.00 0.00 84 1018.8
20260902022030 59 110 2.0 6.0 0.00 0.00 0.00 84 1018.9
20260902021030 59 132 2.0 6.0 0.00 0.00 0.00 84 1018.9
20260902020030 59 139 2.0 5.0 0.00 0.00 0.00 84 1019.1
20260902015030 58 126 2.0 5.0 0.00 0.00 0.00 84 1019.1
20260902014030 58 124 2.0 4.0 0.00 0.00 0.00 84 1019.2